FW0886 Weather Reports


Display with metric or nautical units.
time (UTC)temp
F
wind
direction
speed
MPH
gust
MPH
rain 1hr
in
rain 24hr
in
rain mn
in
humidity
%
barometer
mb
20190123011015 31 9 2.0 4.0 0.03 0.46 0.04 94 1012.2
20190123010015 32 304 1.0 6.0 0.04 0.46 0.04 94 1012.1
20190123005015 32 12 3.0 9.0 0.03 0.45 0.03 93 1011.7
20190123004015 32 333 2.0 4.0 0.04 0.45 0.03 94 1011.7
20190123003015 32 323 2.0 5.0 0.04 0.44 0.02 94 1011.7
20190123002111 32 0 2.0 3.0 0.04 0.44 0.02 94 1011.7
20190123001915 32 18 2.0 5.0 0.04 0.44 0.02 94 1011.6
20190123000915 33 18 1.0 5.0 0.04 0.43 0.01 94 1011.7
20190122235915 33 348 2.0 8.0 0.03 0.42 0.42 94 1011.8
20190122234916 33 330 1.0 3.0 0.03 0.42 0.42 94 1011.4
20190122233915 33 331 3.0 7.0 0.02 0.41 0.41 94 1011.3
20190122232916 33 351 1.0 7.0 0.02 0.40 0.40 94 1011.3
20190122231915 33 22 1.0 5.0 0.02 0.40 0.40 94 1011.3
20190122230915 33 15 1.0 4.0 0.01 0.39 0.39 94 1011.0
20190122225916 33 22 1.0 4.0 0.02 0.39 0.39 94 1010.8
20190122224915 33 10 3.0 8.0 0.02 0.39 0.39 94 1010.8
20190122223916 33 22 2.0 7.0 0.03 0.39 0.39 94 1010.9
20190122222923 33 22 2.0 2.0 0.03 0.38 0.38 94 1010.8
20190122222116 33 5 2.0 6.0 0.03 0.38 0.38 94 1010.9
20190122221117 34 335 1.0 4.0 0.04 0.38 0.38 94 1010.9
20190122220155 34 0 3.0 6.0 0.04 0.38 0.38 94 1010.6
20190122215517 34 23 2.0 6.0 0.03 0.37 0.37 94 1010.7
20190122214516 34 326 3.0 6.0 0.04 0.37 0.37 94 1010.7
20190122213534 35 22 3.0 5.0 0.03 0.36 0.36 95 1010.5
20190122213115 35 24 1.0 4.0 0.03 0.35 0.35 95 1010.3
20190122212115 35 333 1.0 4.0 0.03 0.35 0.35 94 1010.4
20190122211116 35 333 3.0 8.0 0.03 0.34 0.34 95 1010.5
20190122210115 36 353 1.0 4.0 0.03 0.34 0.34 95 1010.4
20190122205115 36 316 1.0 5.0 0.04 0.33 0.33 95 1010.3
20190122204115 36 355 0.0 2.0 0.05 0.33 0.33 95 1010.1
20190122203116 36 317 1.0 3.0 0.05 0.32 0.32 95 1010.0
20190122202115 37 345 1.0 5.0 0.07 0.32 0.32 95 1009.8
20190122201146 37 0.0 1.0 0.08 0.31 0.31 95 1009.8
20190122200515 37 333 2.0 5.0 0.09 0.31 0.31 95 1010.1
20190122195515 38 0 1.0 4.0 0.09 0.30 0.30 95 1009.7
20190122194516 38 317 1.0 7.0 0.09 0.29 0.28 95 1009.8
20190122193515 39 328 2.0 3.0 0.07 0.27 0.27 95 1009.8
20190122192517 39 318 0.0 2.0 0.07 0.26 0.26 95 1010.0
20190122191605 39 0.0 2.0 0.06 0.24 0.24 95 1009.8
20190122190715 40 330 2.0 5.0 0.05 0.23 0.22 96 1009.5
20190122185715 39 170 0.0 1.0 0.04 0.21 0.21 96 1009.3
20190122184800 39 157 3.0 5.0 0.03 0.20 0.20 95 1009.3
20190122184315 39 90 0.0 2.0 0.04 0.20 0.20 95 1009.4
20190122183315 39 84 0.0 2.0 0.03 0.19 0.19 95 1009.7
20190122182315 38 140 0.0 2.0 0.04 0.19 0.19 95 1009.7
20190122181315 38 0.0 0.0 0.04 0.18 0.18 95 1009.8
20190122180315 38 0.0 1.0 0.04 0.18 0.18 95 1009.9
20190122175315 38 103 0.0 2.0 0.04 0.17 0.17 95 1009.8
20190122174315 38 0.0 0.0 0.04 0.16 0.16 95 1010.3
20190122173316 38 107 1.0 2.0 0.04 0.16 0.16 95 1010.3
20190122172414 38 0.0 1.0 0.04 0.15 0.15 95 1010.4
20190122171617 38 69 0.0 2.0 0.05 0.15 0.15 95 1010.3
20190122170617 38 163 0.0 2.0 0.04 0.13 0.14 95 1010.6
20190122165643 37 0.0 1.0 0.04 0.12 0.12 95 1010.7
20190122165217 37 103 0.0 2.0 0.05 0.12 0.13 95 1010.7
20190122164217 37 174 1.0 3.0 0.05 0.11 0.12 94 1010.5
20190122163217 37 67 0.0 2.0 0.05 0.11 0.12 94 1010.3
20190122162217 37 83 0.0 2.0 0.05 0.10 0.11 94 1010.4
20190122161217 37 160 0.0 2.0 0.05 0.10 0.10 94 1010.5
20190122160225 37 0.0 0.0 0.04 0.09 0.09 93 1010.7
20190122155417 37 174 1.0 3.0 0.04 0.09 0.09 93 1010.7
20190122154415 37 149 0.0 2.0 0.03 0.08 0.08 93 1010.8
20190122153429 36 157 1.0 2.0 0.03 0.07 0.07 93 1010.6
20190122152617 36 149 0.0 2.0 0.02 0.06 0.06 92 1010.6
20190122151617 36 135 0.0 2.0 0.02 0.06 0.06 92 1010.6
20190122150626 36 90 1.0 2.0 0.01 0.05 0.05 91 1010.5
20190122145917 36 142 0.0 2.0 0.01 0.05 0.05 90 1010.5
20190122144916 36 183 0.0 4.0 0.02 0.05 0.05 89 1010.5
20190122143916 36 126 1.0 3.0 0.02 0.05 0.05 88 1010.4
20190122142916 37 73 1.0 3.0 0.01 0.04 0.04 87 1010.5
20190122141917 37 82 0.0 2.0 0.02 0.04 0.04 86 1010.5
20190122141012 37 112 2.0 2.0 0.02 0.04 0.04 85 1010.4
20190122140116 37 21 1.0 2.0 0.02 0.04 0.04 84 1010.7